CW9455 Weather Reports


Display with metric or nautical units.
time (UTC)temp
F
wind
direction
speed
MPH
gust
MPH
rain 1hr
in
rain 24hr
in
rain mn
in
humidity
%
barometer
mb
20181116010253 33 118 9.0 17.0 0.00 0.00 0.00 93 1021.1
20181116005753 33 123 8.0 15.0 0.00 0.00 0.00 93 1021.6
20181116005252 33 113 8.0 15.0 0.00 0.00 0.00 93 1022.0
20181116004752 33 130 8.0 15.0 0.00 0.00 0.00 93 1021.9
20181116004251 33 123 8.0 16.0 0.00 0.00 0.00 93 1022.2
20181116003752 33 116 8.0 20.0 0.00 0.00 0.00 93 1022.0
20181116003253 33 142 9.0 20.0 0.00 0.00 0.00 93 1021.8
20181116002753 33 69 8.0 16.0 0.00 0.00 0.00 93 1021.7
20181116002253 33 122 8.0 15.0 0.00 0.00 0.00 93 1021.8
20181116001751 33 123 8.0 17.0 0.00 0.00 0.00 93 1021.8
20181116001250 33 109 8.0 17.0 0.00 0.00 0.00 93 1022.0
20181116000750 33 102 9.0 17.0 0.00 0.00 0.00 93 1022.2
20181116000250 33 130 9.0 18.0 0.00 0.00 0.00 93 1022.2
20181115235749 33 117 9.0 18.0 0.00 0.00 0.00 93 1022.2
20181115235249 33 121 9.0 17.0 0.00 0.00 0.00 93 1022.4
20181115234750 33 106 9.0 17.0 0.00 0.00 0.00 93 1022.7
20181115234250 33 132 9.0 16.0 0.00 0.00 0.00 93 1022.7
20181115233749 33 133 9.0 16.0 0.00 0.00 0.00 93 1022.5
20181115233251 33 145 8.0 16.0 0.00 0.00 0.00 93 1022.8
20181115232751 33 134 8.0 16.0 0.00 0.00 0.00 93 1023.2
20181115232249 33 100 9.0 18.0 0.00 0.00 0.00 92 1023.2
20181115231750 33 99 9.0 18.0 0.00 0.00 0.00 92 1023.3
20181115231250 33 117 9.0 18.0 0.00 0.00 0.00 92 1023.2
20181115230747 33 90 9.0 18.0 0.00 0.00 0.00 92 1023.7
20181115230247 33 161 9.0 20.0 0.00 0.00 0.00 92 1023.9
20181115225749 33 89 10.0 20.0 0.00 0.00 0.00 91 1024.0
20181115225247 33 105 10.0 17.0 0.00 0.00 0.00 91 1024.5
20181115224747 33 92 8.0 17.0 0.00 0.00 0.00 91 1024.4
20181115224247 33 105 8.0 17.0 0.00 0.00 0.00 91 1024.4
20181115223748 33 118 8.0 15.0 0.00 0.00 0.00 90 1024.5
20181115223247 33 130 8.0 15.0 0.00 0.00 0.00 90 1024.6
20181115222745 33 109 8.0 18.0 0.00 0.00 0.00 90 1024.9
20181115222245 33 121 8.0 18.0 0.00 0.00 0.00 89 1024.8
20181115221744 33 107 8.0 18.0 0.00 0.00 0.00 89 1024.7
20181115221240 33 78 9.0 18.0 0.00 0.00 0.00 88 1024.8
20181115220739 33 115 9.0 16.0 0.00 0.00 0.00 87 1024.7
20181115220241 33 159 9.0 16.0 0.00 0.00 0.00 86 1024.8
20181115215739 33 109 9.0 15.0 0.00 0.00 0.00 85 1025.1
20181115215239 33 115 9.0 15.0 0.00 0.00 0.00 83 1025.1
20181115214739 33 144 9.0 17.0 0.00 0.00 0.00 82 1024.9
20181115214238 33 112 9.0 17.0 0.00 0.00 0.00 81 1024.9
20181115213738 34 108 10.0 18.0 0.00 0.00 0.00 79 1024.7
20181115213237 34 101 11.0 20.0 0.00 0.00 0.00 77 1024.8
20181115212739 34 84 11.0 20.0 0.00 0.00 0.00 76 1024.7
20181115212237 35 152 11.0 20.0 0.00 0.00 0.00 75 1024.4
20181115211737 35 100 11.0 19.0 0.00 0.00 0.00 75 1024.1
20181115211238 35 103 11.0 20.0 0.00 0.00 0.00 74 1024.0
20181115210737 35 80 10.0 20.0 0.00 0.00 0.00 73 1024.3
20181115210238 35 93 10.0 19.0 0.00 0.00 0.00 72 1024.5
20181115205735 35 108 11.0 20.0 0.00 0.00 0.00 71 1024.6
20181115205236 35 119 11.0 23.0 0.00 0.00 0.00 71 1025.0
20181115204735 35 91 10.0 23.0 0.00 0.00 0.00 70 1025.1
20181115204235 35 119 11.0 21.0 0.00 0.00 0.00 69 1025.1
20181115203737 35 134 11.0 21.0 0.00 0.00 0.00 69 1025.1
20181115203235 34 114 10.0 20.0 0.00 0.00 0.00 70 1025.2
20181115202735 34 115 9.0 19.0 0.00 0.00 0.00 70 1025.5
20181115202236 34 133 10.0 19.0 0.00 0.00 0.00 71 1025.7
20181115201734 33 106 10.0 18.0 0.00 0.00 0.00 72 1026.0
20181115201236 33 113 9.0 19.0 0.00 0.00 0.00 72 1026.0
20181115200732 33 69 8.0 19.0 0.00 0.00 0.00 72 1026.1
20181115200235 33 101 9.0 17.0 0.00 0.00 0.00 71 1026.5
20181115195733 33 131 10.0 19.0 0.00 0.00 0.00 70 1026.6
20181115195233 34 130 9.0 19.0 0.00 0.00 0.00 69 1026.9
20181115194735 34 96 10.0 17.0 0.00 0.00 0.00 69 1026.9
20181115194233 34 117 9.0 17.0 0.00 0.00 0.00 68 1027.2
20181115193734 34 74 8.0 16.0 0.00 0.00 0.00 67 1027.3
20181115193234 33 128 8.0 16.0 0.00 0.00 0.00 67 1027.5
20181115192733 33 101 8.0 17.0 0.00 0.00 0.00 67 1027.8
20181115192233 34 101 9.0 18.0 0.00 0.00 0.00 66 1028.0
20181115191733 34 78 8.0 18.0 0.00 0.00 0.00 66 1028.2
20181115191233 34 88 7.0 14.0 0.00 0.00 0.00 66 1028.2
20181115190734 33 173 8.0 14.0 0.00 0.00 0.00 65 1028.3
20181115190232 33 107 8.0 14.0 0.00 0.00 0.00 64 1028.5
20181115185732 33 105 8.0 15.0 0.00 0.00 0.00 64 1028.8
20181115185234 33 98 7.0 15.0 0.00 0.00 0.00 64 1029.0
20181115184734 33 109 7.0 15.0 0.00 0.00 0.00 64 1029.0
20181115184232 33 134 7.0 15.0 0.00 0.00 0.00 63 1029.2
20181115183732 33 111 6.0 12.0 0.00 0.00 0.00 63 1029.4
20181115183231 33 119 6.0 12.0 0.00 0.00 0.00 63 1029.5
20181115182730 33 119 6.0 13.0 0.00 0.00 0.00 63 1029.7
20181115182232 33 109 7.0 13.0 0.00 0.00 0.00 62 1029.8
20181115181731 33 119 7.0 16.0 0.00 0.00 0.00 62 1029.9
20181115181231 33 132 7.0 16.0 0.00 0.00 0.00 62 1030.0
20181115180732 33 105 7.0 12.0 0.00 0.00 0.00 62 1030.2
20181115180231 33 79 6.0 12.0 0.00 0.00 0.00 61 1030.1
20181115175732 33 125 6.0 11.0 0.00 0.00 0.00 61 1030.1
20181115175231 33 117 6.0 13.0 0.00 0.00 0.00 60 1030.2
20181115174732 33 134 6.0 13.0 0.00 0.00 0.00 60 1030.3
20181115174231 33 71 6.0 13.0 0.00 0.00 0.00 60 1030.3
20181115173731 33 126 7.0 13.0 0.00 0.00 0.00 60 1030.3
20181115173232 33 121 7.0 12.0 0.00 0.00 0.00 59 1030.2
20181115172731 33 121 6.0 12.0 0.00 0.00 0.00 59 1030.3
20181115172232 33 148 7.0 12.0 0.00 0.00 0.00 59 1030.3
20181115171730 33 110 7.0 12.0 0.00 0.00 0.00 59 1030.3
20181115171231 33 92 8.0 12.0 0.00 0.00 0.00 58 1030.3
20181115170729 33 121 7.0 12.0 0.00 0.00 0.00 57 1030.4
20181115170226 33 132 7.0 11.0 0.00 0.00 0.00 58 1030.6
20181115165728 33 104 7.0 11.0 0.00 0.00 0.00 57 1030.6
20181115165224 33 92 6.0 12.0 0.00 0.00 0.00 56 1030.7
20181115164726 33 86 7.0 12.0 0.00 0.00 0.00 56 1031.0
20181115164222 33 119 8.0 14.0 0.00 0.00 0.00 56 1031.0
20181115163722 33 96 8.0 16.0 0.00 0.00 0.00 55 1031.0
20181115163224 33 103 8.0 16.0 0.00 0.00 0.00 54 1031.1
20181115162723 33 100 6.0 14.0 0.00 0.00 0.00 54 1031.3
20181115162224 33 86 6.0 14.0 0.00 0.00 0.00 54 1031.4
20181115161721 33 82 5.0 11.0 0.00 0.00 0.00 53 1031.6
20181115161221 33 116 5.0 12.0 0.00 0.00 0.00 53 1031.6
20181115160721 33 116 6.0 12.0 0.00 0.00 0.00 53 1031.8
20181115160222 33 90 6.0 12.0 0.00 0.00 0.00 52 1031.9
20181115155720 33 130 6.0 12.0 0.00 0.00 0.00 52 1032.2
20181115155222 33 103 6.0 12.0 0.00 0.00 0.00 51 1032.6
20181115154721 33 96 6.0 12.0 0.00 0.00 0.00 51 1032.3
20181115154222 32 146 6.0 11.0 0.00 0.00 0.00 53 1033.0
20181115153720 32 111 5.0 11.0 0.00 0.00 0.00 51 1033.2
20181115153222 32 119 5.0 10.0 0.00 0.00 0.00 53 1033.5
20181115152722 32 125 5.0 12.0 0.00 0.00 0.00 54 1033.6
20181115152221 32 123 6.0 12.0 0.00 0.00 0.00 54 1033.7
20181115151722 32 139 4.0 11.0 0.00 0.00 0.00 54 1033.7
20181115151221 31 156 4.0 13.0 0.00 0.00 0.00 53 1033.7
20181115150722 31 132 6.0 13.0 0.00 0.00 0.00 52 1033.7
20181115150220 31 101 5.0 9.0 0.00 0.00 0.00 51 1033.6
20181115145720 31 144 5.0 13.0 0.00 0.00 0.00 52 1033.7
20181115145218 31 107 5.0 13.0 0.00 0.00 0.00 51 1033.4
20181115144718 31 126 4.0 12.0 0.00 0.00 0.00 51 1033.4
20181115144220 31 148 6.0 12.0 0.00 0.00 0.00 50 1033.3
20181115143718 31 174 6.0 12.0 0.00 0.00 0.00 50 1033.2
20181115143218 30 122 6.0 13.0 0.00 0.00 0.00 50 1033.1
20181115142720 31 92 6.0 13.0 0.00 0.00 0.00 49 1033.1
20181115142218 31 137 5.0 12.0 0.00 0.00 0.00 49 1033.0
20181115141718 31 107 4.0 12.0 0.00 0.00 0.00 49 1033.0
20181115141220 31 125 5.0 12.0 0.00 0.00 0.00 49 1033.0
20181115140720 30 116 5.0 12.0 0.00 0.00 0.00 49 1033.0
20181115140218 30 114 4.0 10.0 0.00 0.00 0.00 49 1033.3
20181115135718 30 137 4.0 10.0 0.00 0.00 0.00 48 1033.4
20181115135218 30 94 5.0 11.0 0.00 0.00 0.00 48 1033.3
20181115134719 30 105 6.0 11.0 0.00 0.00 0.00 47 1033.4
20181115134219 30 80 5.0 11.0 0.00 0.00 0.00 46 1033.5
20181115133719 30 105 4.0 9.0 0.00 0.00 0.00 45 1033.7
20181115133217 30 111 3.0 9.0 0.00 0.00 0.00 46 1033.7
20181115132717 30 121 4.0 9.0 0.00 0.00 0.00 45 1033.8
20181115132217 30 113 4.0 9.0 0.00 0.00 0.00 45 1033.9
20181115131717 30 84 4.0 9.0 0.00 0.00 0.00 45 1034.1
20181115131216 30 92 4.0 8.0 0.00 0.00 0.00 45 1034.3
20181115130717 29 112 5.0 10.0 0.00 0.00 0.00 43 1034.4
20181115130217 29 101 5.0 10.0 0.00 0.00 0.00 43 1034.4
20181115125716 29 147 4.0 9.0 0.00 0.00 0.00 43 1034.5
20181115125217 29 109 4.0 9.0 0.00 0.00 0.00 44 1033.9
20181115124716 29 129 5.0 9.0 0.00 0.00 0.00 43 1033.9
20181115124217 29 122 5.0 9.0 0.00 0.00 0.00 44 1033.7
20181115123716 29 98 5.0 11.0 0.00 0.00 0.00 43 1033.5
20181115123216 29 113 6.0 11.0 0.00 0.00 0.00 43 1033.6
20181115122716 29 92 5.0 9.0 0.00 0.00 0.00 43 1033.7
20181115122216 29 108 5.0 10.0 0.00 0.00 0.00 44 1033.5
20181115121716 29 110 5.0 10.0 0.00 0.00 0.00 44 1033.5
20181115121216 29 88 5.0 11.0 0.00 0.00 0.00 43 1033.5
20181115120717 29 123 5.0 11.0 0.00 0.00 0.00 44 1033.7
20181115120216 29 118 4.0 9.0 0.00 0.00 0.00 42 1033.7
20181115115717 29 126 4.0 8.0 0.00 0.00 0.00 44 1033.6
20181115115216 29 83 5.0 10.0 0.00 0.00 0.00 43 1033.7
20181115114716 29 109 4.0 10.0 0.00 0.00 0.00 45 1033.4
20181115114217 29 128 4.0 8.0 0.00 0.00 0.00 46 1033.2
20181115113714 29 99 5.0 11.0 0.00 0.00 0.00 46 1033.3
20181115113214 29 105 5.0 11.0 0.00 0.00 0.00 45 1033.3
20181115112715 29 102 5.0 11.0 0.00 0.00 0.00 45 1033.2
20181115112214 29 107 5.0 11.0 0.00 0.00 0.00 44 1033.1
20181115111714 29 110 5.0 9.0 0.00 0.00 0.00 43 1033.2
20181115111214 29 109 4.0 9.0 0.00 0.00 0.00 43 1033.2
20181115110714 29 84 3.0 9.0 0.00 0.00 0.00 43 1033.6
20181115110213 29 135 3.0 7.0 0.00 0.00 0.00 44 1033.6
20181115105715 29 117 3.0 7.0 0.00 0.00 0.00 45 1033.5
20181115105212 29 115 4.0 8.0 0.00 0.00 0.00 44 1033.7
20181115104713 29 111 4.0 9.0 0.00 0.00 0.00 43 1033.5
20181115104212 29 83 5.0 9.0 0.00 0.00 0.00 42 1033.8
20181115103714 29 121 5.0 9.0 0.00 0.00 0.00 41 1033.9
20181115103213 29 87 4.0 9.0 0.00 0.00 0.00 42 1034.3
20181115102712 29 107 3.0 8.0 0.00 0.00 0.00 39 1033.8
20181115102213 29 115 3.0 7.0 0.00 0.00 0.00 38 1034.0
20181115101713 29 110 4.0 9.0 0.00 0.00 0.00 39 1033.6
20181115101212 29 92 3.0 9.0 0.00 0.00 0.00 38 1034.0
20181115100713 29 96 4.0 8.0 0.00 0.00 0.00 40 1033.8
20181115100210 29 109 5.0 9.0 0.00 0.00 0.00 40 1033.6
20181115095710 29 113 5.0 11.0 0.00 0.00 0.00 41 1033.8
20181115095209 29 94 5.0 11.0 0.00 0.00 0.00 41 1033.3
20181115094711 30 83 5.0 10.0 0.00 0.00 0.00 42 1033.5
20181115094211 30 83 4.0 9.0 0.00 0.00 0.00 41 1033.7
20181115093710 29 77 4.0 9.0 0.00 0.00 0.00 41 1033.4
20181115093210 30 123 4.0 9.0 0.00 0.00 0.00 41 1033.3
20181115092711 30 88 4.0 8.0 0.00 0.00 0.00 41 1033.6
20181115092210 30 82 5.0 10.0 0.00 0.00 0.00 41 1033.6
20181115091710 30 88 6.0 10.0 0.00 0.00 0.00 41 1033.7
20181115091209 30 101 4.0 9.0 0.00 0.00 0.00 41 1034.0
20181115090710 30 96 3.0 8.0 0.00 0.00 0.00 43 1033.9
20181115090211 30 93 4.0 8.0 0.00 0.00 0.00 42 1034.0
20181115085710 30 93 4.0 8.0 0.00 0.00 0.00 42 1034.1
20181115085211 30 84 4.0 8.0 0.00 0.00 0.00 42 1034.1
20181115084710 30 85 4.0 7.0 0.00 0.00 0.00 42 1034.1
20181115084210 30 90 3.0 7.0 0.00 0.00 0.00 41 1034.2
20181115083709 30 96 2.0 6.0 0.00 0.00 0.00 43 1034.1
20181115083211 30 70 3.0 8.0 0.00 0.00 0.00 42 1033.9
20181115082711 30 70 4.0 9.0 0.00 0.00 0.00 41 1033.8
20181115082210 30 58 4.0 9.0 0.00 0.00 0.00 40 1034.0
20181115081710 30 67 4.0 8.0 0.00 0.00 0.00 39 1033.8
20181115081210 30 103 6.0 11.0 0.00 0.00 0.00 39 1033.9
20181115080710 30 88 6.0 11.0 0.00 0.00 0.00 39 1033.6
20181115080209 30 80 6.0 10.0 0.00 0.00 0.00 39 1033.5
20181115075711 30 84 6.0 10.0 0.00 0.00 0.00 40 1033.6
20181115075210 30 92 5.0 10.0 0.00 0.00 0.00 40 1033.6
20181115074709 30 105 4.0 8.0 0.00 0.00 0.00 40 1034.0
20181115074211 30 88 4.0 9.0 0.00 0.00 0.00 39 1034.0
20181115073711 30 95 4.0 9.0 0.00 0.00 0.00 40 1033.7
20181115073211 30 69 4.0 12.0 0.00 0.00 0.00 39 1034.0
20181115072710 30 84 5.0 12.0 0.00 0.00 0.00 41 1033.7
20181115072211 30 76 5.0 10.0 0.00 0.00 0.00 40 1033.5
20181115071711 30 82 7.0 12.0 0.00 0.00 0.00 38 1033.5
20181115071211 30 96 7.0 14.0 0.00 0.00 0.00 38 1033.4
20181115070711 30 75 5.0 14.0 0.00 0.00 0.00 40 1033.5
20181115070210 30 82 6.0 10.0 0.00 0.00 0.00 39 1033.5
20181115065711 31 83 6.0 12.0 0.00 0.00 0.00 39 1033.4
20181115065210 31 83 6.0 12.0 0.00 0.00 0.00 39 1034.0
20181115064709 31 90 5.0 10.0 0.00 0.00 0.00 40 1033.5
20181115064210 31 67 5.0 10.0 0.00 0.00 0.00 39 1033.5
20181115063711 31 84 5.0 11.0 0.00 0.00 0.00 39 1033.6
20181115063209 31 100 4.0 11.0 0.00 0.00 0.00 39 1033.8
20181115062710 31 71 4.0 10.0 0.00 0.00 0.00 38 1033.8
20181115062211 31 84 4.0 10.0 0.00 0.00 0.00 39 1033.9
20181115061710 31 75 5.0 10.0 0.00 0.00 0.00 37 1034.1
20181115061208 31 74 5.0 13.0 0.00 0.00 0.00 37 1033.9
20181115060707 31 71 5.0 13.0 0.00 0.00 0.00 37 1033.5
20181115060207 31 105 4.0 10.0 0.00 0.00 0.00 38 1034.1
20181115055705 31 85 5.0 10.0 0.00 0.00 0.00 38 1033.8
20181115055206 31 90 4.0 9.0 0.00 0.00 0.00 37 1033.7
20181115054705 31 98 5.0 12.0 0.00 0.00 0.00 36 1033.8
20181115054205 31 79 5.0 12.0 0.00 0.00 0.00 35 1033.7
20181115053707 31 87 5.0 10.0 0.00 0.00 0.00 35 1033.6
20181115053205 31 74 4.0 10.0 0.00 0.00 0.00 35 1033.6
20181115052706 31 83 4.0 10.0 0.00 0.00 0.00 34 1033.7
20181115052206 31 96 5.0 10.0 0.00 0.00 0.00 34 1033.6
20181115051705 31 84 6.0 13.0 0.00 0.00 0.00 33 1033.7
20181115051205 31 76 7.0 13.0 0.00 0.00 0.00 33 1033.6
20181115050706 31 59 7.0 12.0 0.00 0.00 0.00 33 1033.5
20181115050206 31 113 6.0 11.0 0.00 0.00 0.00 34 1033.4
20181115045705 31 69 4.0 10.0 0.00 0.00 0.00 36 1033.5
20181115045206 31 57 3.0 8.0 0.00 0.00 0.00 35 1033.7
20181115044707 31 72 3.0 9.0 0.00 0.00 0.00 37 1033.5
20181115044207 31 94 5.0 11.0 0.00 0.00 0.00 37 1033.5
20181115043706 31 37 7.0 14.0 0.00 0.00 0.00 36 1033.3
20181115043207 31 57 7.0 14.0 0.00 0.00 0.00 35 1033.2
20181115042710 31 69 7.0 14.0 0.00 0.00 0.00 36 1033.2
20181115042206 31 56 7.0 13.0 0.00 0.00 0.00 36 1033.3
20181115041707 31 84 7.0 13.0 0.00 0.00 0.00 35 1033.6
20181115041207 31 47 7.0 13.0 0.00 0.00 0.00 36 1033.7
20181115040706 31 67 7.0 14.0 0.00 0.00 0.00 36 1033.7
20181115040207 31 36 7.0 14.0 0.00 0.00 0.00 36 1033.9
20181115035707 31 69 7.0 14.0 0.00 0.00 0.00 38 1033.8
20181115035205 31 47 6.0 14.0 0.00 0.00 0.00 40 1033.5
20181115034707 31 32 6.0 11.0 0.00 0.00 0.00 42 1033.8
20181115034206 31 59 6.0 12.0 0.00 0.00 0.00 41 1033.7
20181115033706 31 24 8.0 18.0 0.00 0.00 0.00 42 1034.0
20181115033206 31 73 9.0 18.0 0.00 0.00 0.00 42 1033.9
20181115032707 31 37 7.0 15.0 0.00 0.00 0.00 41 1034.0
20181115032207 31 57 7.0 13.0 0.00 0.00 0.00 41 1033.6
20181115031706 31 43 7.0 13.0 0.00 0.00 0.00 42 1033.2
20181115031206 31 55 7.0 15.0 0.00 0.00 0.00 41 1033.4
20181115030706 31 59 8.0 15.0 0.00 0.00 0.00 40 1033.5
20181115030207 31 41 8.0 15.0 0.00 0.00 0.00 40 1033.0
20181115025706 31 53 8.0 13.0 0.00 0.00 0.00 42 1032.9
20181115025206 31 55 8.0 12.0 0.00 0.00 0.00 39 1032.9
20181115024707 31 61 9.0 17.0 0.00 0.00 0.00 40 1033.0
20181115024206 31 21 9.0 17.0 0.00 0.00 0.00 40 1032.9
20181115023707 31 37 7.0 15.0 0.00 0.00 0.00 40 1032.9
20181115023206 31 73 7.0 14.0 0.00 0.00 0.00 42 1032.8
20181115022707 31 46 9.0 18.0 0.00 0.00 0.00 41 1032.7
20181115022207 31 69 10.0 18.0 0.00 0.00 0.00 42 1032.5
20181115021706 31 46 10.0 18.0 0.00 0.00 0.00 38 1032.4
20181115021206 31 80 10.0 19.0 0.00 0.00 0.00 39 1032.5
20181115020706 31 35 10.0 19.0 0.00 0.00 0.00 39 1032.4
20181115020205 32 38 10.0 18.0 0.00 0.00 0.00 42 1032.0
20181115015707 32 19 10.0 18.0 0.00 0.00 0.00 40 1032.1
20181115015205 32 52 11.0 18.0 0.00 0.00 0.00 40 1032.4
20181115014706 32 21 11.0 18.0 0.00 0.00 0.00 39 1032.5
20181115014205 32 51 11.0 21.0 0.00 0.00 0.00 39 1032.1
20181115013707 32 39 13.0 24.0 0.00 0.00 0.00 40 1031.9
20181115013205 32 38 13.0 24.0 0.00 0.00 0.00 38 1032.1
20181115012705 32 43 11.0 25.0 0.00 0.00 0.00 39 1032.3
20181115012206 32 51 11.0 25.0 0.00 0.00 0.00 40 1032.1
20181115011705 32 30 12.0 20.0 0.00 0.00 0.00 40 1031.8
20181115011206 32 38 11.0 20.0 0.00 0.00 0.00 38 1031.8
20181115010706 32 44 10.0 18.0 0.00 0.00 0.00 41 1032.0